QPF
0.00 0.00 0.00 0.00 0.00 0.00 0.00 0.00 0.00 0.00 0.00 0.00 0.00 0.00 0.00 0.00 0.00 0.00 0.00 0.00 0.00 0.00 0.00 0.00 0.00 0.00 0.00 0.00 0.00 0.11 0.07 0.02 0.01 0.09 0.00 0.00 0.00 0.00 0.00 0.00 0.00 0.00 0.00 0.00 0.00
0.00 0.00 0.00 0.00 0.00 0.00 0.00 0.00 0.00 0.00 0.00 0.00 0.00 0.00 0.00 0.00 0.00 0.00 0.00 0.00 0.00 0.00 0.00 0.00 0.00 0.00 0.00 0.00 0.11 0.53 0.02 0.00 0.00 0.01 0.00 0.00 0.00 0.00 0.00 0.00 0.00 0.00 0.00 0.00 0.00
0.00 0.00 0.00 0.00 0.00 0.00 0.00 0.00 0.00 0.00 0.00 0.00 0.00 0.00 0.00 0.00 0.00 0.00 0.00 0.00 0.00 0.00 0.00 0.00 0.00 0.00 0.01 0.02 0.09 0.11 0.00 0.00 0.00 0.00 0.00 0.00 0.00 0.00 0.00 0.01 0.00 0.00 0.00 0.00 0.00
0.00 0.00 0.00 0.00 0.00 0.00 0.00 0.00 0.00 0.00 0.00 0.00 0.00 0.00 0.00 0.00 0.00 0.00 0.00 0.00 0.00 0.00 0.00 0.00 0.01 0.28 0.03 0.01 0.01 0.03 0.00 0.00 0.00 0.00 0.00 0.00 0.00 0.00 0.00 0.00 0.00 0.00 0.00 0.00 0.00
0.00 0.00 0.00 0.00 0.00 0.00 0.00 0.00 0.00 0.00 0.00 0.00 0.00 0.00 0.00 0.00 0.00 0.00 0.00 0.00 0.00 0.00 0.02 0.01 0.06 0.67 0.09 0.01 0.01 0.01 0.00 0.00 0.00 0.00 0.00 0.00 0.00 0.00 0.00 0.00 0.00 0.00 0.00 0.00 0.00
0.00 0.00 0.00 0.00 0.00 0.00 0.00 0.00 0.00 0.00 0.00 0.00 0.00 0.00 0.00 0.00 0.00 0.00 0.00 0.00 0.00 0.00 0.00 0.00 0.00 0.02 0.02 0.02 0.05 0.00 0.00 0.00 0.00 0.00 0.00 0.00 0.00 0.00 0.00 0.00 0.00 0.00 0.00 0.00 0.00
0.00 0.00 0.00 0.00 0.00 0.00 0.00 0.00 0.00 0.00 0.00 0.00 0.00 0.00 0.00 0.00 0.00 0.00 0.00 0.00 0.00 0.00 0.02 0.00 0.00 0.01 0.00 0.01 0.00 0.00 0.00 0.00 0.00 0.00 0.00 0.00 0.08 0.02 0.01 0.00 0.00 0.00 0.00 0.00 0.00
0.00 0.00 0.00 0.00 0.00 0.00 0.00 0.00 0.00 0.00 0.00 0.00 0.00 0.00 0.00 0.00 0.00 0.00 0.00 0.00 0.00 0.00 0.00 0.00 0.00 0.00 0.00 0.00 0.01 0.04 0.08 0.06 0.02 0.00 0.01 0.00 0.07 0.06 0.03 0.00 0.00 0.00 0.00 0.00 0.00
0.00 0.00 0.00 0.00 0.00 0.00 0.00 0.00 0.00 0.00 0.00 0.00 0.00 0.00 0.00 0.00 0.00 0.00 0.00 0.00 0.00 0.00 0.00 0.00 0.00 0.00 0.01 0.03 0.27 0.26 0.26 0.21 0.02 0.02 0.01 0.00 0.01 0.01 0.07 0.02 0.00 0.00 0.00 0.00 0.00
0.00 0.00 0.00 0.00 0.00 0.00 0.00 0.00 0.00 0.00 0.00 0.00 0.00 0.00 0.00 0.00 0.00 0.00 0.00 0.00 0.00 0.00 0.00 0.00 0.03 0.06 0.01 0.08 0.08 0.16 0.00 0.01 0.02 0.08 0.01 0.00 0.01 0.01 0.08 0.20 0.00 0.00 0.00 0.00 0.00
0.00 0.00 0.00 0.00 0.00 0.00 0.00 0.00 0.00 0.00 0.00 0.00 0.00 0.00 0.00 0.00 0.00 0.00 0.00 0.00 0.00 0.00 0.02 0.05 0.03 0.04 0.01 0.00 0.00 0.01 0.01 0.01 0.00 0.00 0.00 0.00 0.00 0.00 0.00 0.03 0.05 0.00 0.00 0.00 0.00
0.00 0.00 0.00 0.00 0.00 0.00 0.00 0.00 0.00 0.00 0.00 0.00 0.00 0.00 0.00 0.00 0.00 0.00 0.00 0.00 0.00 0.01 0.01 0.02 0.06 0.00 0.00 0.00 0.00 0.01 0.01 0.01 0.00 0.00 0.00 0.00 0.01 0.00 0.00 0.00 0.00 0.00 0.00 0.00 0.00
0.00 0.00 0.00 0.00 0.00 0.00 0.00 0.00 0.00 0.00 0.00 0.00 0.00 0.00 0.00 0.00 0.00 0.00 0.00 0.00 0.00 0.01 0.06 0.19 0.01 0.00 0.00 0.00 0.00 0.00 0.00 0.00 0.00 0.00 0.00 0.00 0.01 0.04 0.08 0.00 0.00 0.00 0.00 0.00 0.00
0.00 0.00 0.00 0.00 0.00 0.00 0.00 0.00 0.00 0.00 0.00 0.00 0.00 0.00 0.00 0.00 0.00 0.00 0.00 0.00 0.00 0.01 0.03 0.01 0.00 0.00 0.00 0.00 0.00 0.00 0.00 0.00 0.00 0.00 0.02 0.00 0.01 0.07 0.03 0.00 0.00 0.00 0.00 0.00 0.00
0.00 0.00 0.00 0.00 0.00 0.00 0.00 0.00 0.00 0.00 0.00 0.00 0.00 0.00 0.00 0.00 0.00 0.00 0.00 0.00 0.00 0.00 0.00 0.01 0.00 0.00 0.00 0.00 0.00 0.00 0.00 0.00 0.00 0.00 0.00 0.01 0.00 0.00 0.00 0.00 0.00 0.00 0.00 0.00 0.00
0.00 0.00 0.00 0.00 0.00 0.00 0.00 0.00 0.00 0.00 0.00 0.00 0.00 0.00 0.00 0.00 0.00 0.00 0.00 0.00 0.01 0.01 0.01 0.00 0.00 0.00 0.00 0.00 0.00 0.00 0.00 0.00 0.00 0.00 0.00 0.00 0.00 0.00 0.00 0.00 0.00 0.00 0.00 0.00 0.00
0.00 0.00 0.00 0.00 0.00 0.00 0.00 0.00 0.00 0.00 0.00 0.00 0.00 0.00 0.00 0.00 0.00 0.00 0.00 0.00 0.00 0.21 0.15 0.01 0.00 0.00 0.00 0.00 0.00 0.00 0.00 0.00 0.00 0.00 0.00 0.00 0.00 0.00 0.00 0.00 0.00 0.00 0.00 0.00 0.00
0.00 0.00 0.00 0.00 0.00 0.00 0.00 0.00 0.00 0.00 0.00 0.00 0.00 0.00 0.00 0.00 0.00 0.00 0.00 0.00 0.00 0.02 0.05 0.01 0.00 0.00 0.00 0.00 0.00 0.00 0.00 0.00 0.00 0.00 0.00 0.00 0.00 0.00 0.00 0.00 0.00 0.00 0.00 0.00 0.00
0.00 0.00 0.00 0.00 0.00 0.00 0.00 0.00 0.00 0.00 0.00 0.00 0.00 0.00 0.01 0.00 0.02 0.02 0.00 0.00 0.02 0.02 0.00 0.00 0.00 0.00 0.00 0.00 0.00 0.00 0.00 0.00 0.00 0.00 0.00 0.00 0.00 0.00 0.00 0.00 0.00 0.00 0.00 0.00 0.00
0.00 0.00 0.00 0.00 0.00 0.00 0.00 0.00 0.00 0.00 0.00 0.00 0.00 0.00 0.00 0.01 0.00 0.00 0.00 0.00 0.00 0.00 0.00 0.00 0.00 0.00 0.00 0.00 0.00 0.00 0.00 0.00 0.00 0.00 0.00 0.00 0.00 0.00 0.00 0.00 0.00 0.00 0.00 0.00 0.00
0.00 0.00 0.00 0.00 0.00 0.00 0.00 0.00 0.00 0.00 0.00 0.00 0.00 0.00 0.00 0.00 0.00 0.00 0.00 0.00 0.00 0.00 0.00 0.00 0.00 0.00 0.00 0.00 0.00 0.00 0.00 0.00 0.00 0.00 0.00 0.00 0.00 0.00 0.00 0.00 0.00 0.00 0.00 0.00 0.00
0.00 0.00 0.00 0.00 0.00 0.00 0.00 0.00 0.00 0.00 0.00 0.00 0.00 0.00 0.00 0.00 0.00 0.00 0.00 0.00 0.00 0.00 0.00 0.00 0.00 0.00 0.00 0.00 0.00 0.00 0.00 0.00 0.00 0.00 0.00 0.00 0.00 0.00 0.00 0.00 0.00 0.00 0.00 0.00 0.00
0.00 0.00 0.00 0.00 0.00 0.00 0.00 0.00 0.00 0.00 0.00 0.00 0.00 0.00 0.00 0.00 0.00 0.00 0.00 0.00 0.00 0.00 0.00 0.00 0.00 0.00 0.00 0.00 0.00 0.00 0.00 0.00 0.00 0.00 0.00 0.00 0.00 0.00 0.00 0.00 0.00 0.00 0.00 0.00 0.00
0.00 0.00 0.00 0.00 0.00 0.00 0.00 0.00 0.00 0.00 0.00 0.00 0.00 0.00 0.00 0.00 0.00 0.00 0.00 0.00 0.00 0.00 0.00 0.00 0.00 0.00 0.00 0.00 0.00 0.00 0.00 0.00 0.00 0.00 0.00 0.00 0.00 0.00 0.00 0.00 0.00 0.00 0.00 0.00 0.00
0.00 0.00 0.00 0.00 0.00 0.00 0.00 0.00 0.00 0.00 0.00 0.00 0.00 0.00 0.00 0.00 0.00 0.00 0.00 0.00 0.00 0.00 0.00 0.00 0.00 0.00 0.00 0.00 0.00 0.00 0.00 0.00 0.00 0.00 0.00 0.00 0.00 0.00 0.00 0.00 0.00 0.00 0.00 0.00 0.00
0.00 0.00 0.00 0.00 0.00 0.00 0.00 0.00 0.00 0.00 0.00 0.00 0.00 0.00 0.00 0.00 0.00 0.00 0.00 0.00 0.00 0.00 0.00 0.00 0.00 0.00 0.00 0.00 0.00 0.00 0.00 0.00 0.00 0.00 0.00 0.00 0.00 0.00 0.00 0.00 0.00 0.00 0.00 0.00 0.00
0.00 0.00 0.00 0.00 0.00 0.00 0.00 0.00 0.00 0.00 0.00 0.00 0.00 0.00 0.00 0.00 0.00 0.00 0.00 0.00 0.00 0.00 0.00 0.00 0.00 0.00 0.00 0.00 0.00 0.00 0.00 0.00 0.00 0.00 0.00 0.00 0.00 0.00 0.00 0.00 0.00 0.00 0.00 0.00 0.00
MSLP
1014.59 1014.39 1014.21 1013.90 1013.50 1013.23 1012.92 1012.85 1012.75 1012.57 1012.27 1011.94 1011.73 1011.42 1011.03 1010.62 1009.53 1008.83 1006.92 1005.52 1005.33 1005.14 1005.52 1004.58 1004.14 1003.77 1003.47 1003.29 1005.72 1007.18 1006.73 1004.88 1002.96 1002.48 1001.30 1000.92 1000.87 1001.39 1001.97 1002.66 1003.02 1003.54 1004.33 1006.03 1007.39
1014.57 1014.40 1014.28 1013.88 1013.48 1013.15 1012.86 1012.64 1012.56 1012.39 1012.19 1011.99 1011.72 1011.34 1011.04 1010.77 1009.21 1006.93 1005.56 1005.05 1004.96 1005.08 1005.03 1003.90 1003.30 1003.64 1003.21 1003.82 1006.41 1007.76 1006.16 1002.91 1001.68 1002.00 1001.13 1000.46 1000.77 1001.52 1002.18 1002.52 1003.19 1003.86 1004.91 1006.18 1007.29
1014.55 1014.38 1014.21 1013.86 1013.43 1013.07 1012.75 1012.49 1012.43 1012.23 1011.98 1011.83 1011.59 1011.29 1010.94 1010.70 1008.32 1004.95 1005.29 1004.98 1004.97 1005.23 1004.90 1003.90 1003.63 1003.52 1003.42 1005.39 1007.81 1007.22 1005.02 1001.66 1000.98 1000.48 1000.18 1000.26 1000.51 1001.66 1002.25 1003.29 1002.82 1003.97 1005.16 1006.36 1007.11
1014.43 1014.30 1014.11 1013.82 1013.36 1013.01 1012.75 1012.42 1012.31 1012.14 1011.89 1011.70 1011.36 1011.08 1010.86 1009.65 1006.19 1004.82 1005.17 1004.92 1005.07 1005.01 1004.68 1002.83 1003.02 1003.25 1005.61 1004.16 1005.12 1004.80 1002.94 1001.67 1001.14 1000.31 1000.20 1000.54 1000.60 1001.49 1001.83 1002.02 1002.52 1003.95 1005.27 1006.09 1006.82
1014.43 1014.07 1014.02 1013.75 1013.36 1012.86 1012.63 1012.44 1012.20 1011.93 1011.67 1011.50 1011.26 1011.02 1010.13 1007.76 1004.40 1004.59 1005.01 1005.02 1004.86 1004.82 1004.16 1003.00 1003.81 1004.67 1004.71 1004.19 1003.46 1003.58 1001.62 1001.34 1000.81 1000.29 1000.29 1000.86 1001.06 1001.19 1001.98 1002.26 1003.15 1004.22 1005.26 1005.89 1006.41
1014.33 1014.11 1013.74 1013.57 1013.20 1012.75 1012.47 1012.24 1012.07 1011.81 1011.54 1011.39 1011.22 1011.01 1009.40 1005.70 1003.35 1004.18 1004.31 1004.37 1003.98 1003.51 1002.72 1002.69 1002.76 1002.87 1002.76 1003.07 1003.05 1002.35 1001.44 1001.70 1001.44 1000.81 1000.80 1000.95 1001.59 1002.15 1002.30 1002.64 1003.53 1004.42 1005.14 1005.61 1005.84
1014.24 1013.90 1013.63 1013.34 1013.07 1012.65 1012.33 1012.03 1011.80 1011.46 1011.26 1011.10 1010.87 1010.37 1007.57 1004.22 1002.95 1003.60 1003.62 1003.59 1003.11 1002.67 1002.25 1001.61 1002.12 1002.24 1002.02 1001.77 1001.92 1003.03 1004.02 1002.42 1001.64 1001.36 1001.19 1001.71 1003.04 1004.32 1004.15 1003.10 1003.95 1004.39 1004.81 1005.19 1005.50
1014.03 1013.77 1013.46 1013.14 1012.76 1012.43 1012.12 1011.86 1011.56 1011.19 1011.08 1010.95 1010.96 1009.63 1005.58 1003.20 1002.89 1003.10 1003.21 1002.88 1002.80 1002.43 1002.17 1001.60 1001.48 1001.54 1001.42 1002.01 1004.18 1006.93 1007.03 1005.56 1003.18 1003.22 1003.26 1001.94 1004.80 1005.96 1004.92 1004.08 1003.78 1004.15 1004.52 1004.82 1005.19
1013.87 1013.50 1013.24 1013.01 1012.64 1012.23 1011.83 1011.54 1011.10 1010.76 1010.61 1010.56 1009.96 1008.07 1004.04 1003.53 1003.12 1002.67 1002.66 1002.21 1002.11 1002.00 1001.61 1001.49 1001.58 1001.68 1002.75 1005.12 1006.49 1007.26 1008.42 1007.15 1005.78 1004.21 1004.50 1002.74 1003.92 1004.61 1006.40 1005.59 1003.40 1003.53 1003.87 1004.38 1004.73
1013.69 1013.32 1013.03 1012.82 1012.54 1012.11 1011.63 1011.43 1010.78 1010.44 1009.96 1008.92 1007.86 1006.61 1003.49 1002.25 1001.98 1002.15 1002.23 1002.18 1002.11 1001.56 1001.58 1001.87 1004.47 1003.82 1003.42 1005.70 1005.84 1006.01 1006.74 1006.11 1005.48 1004.15 1003.18 1002.93 1002.66 1004.15 1004.56 1005.26 1003.41 1002.54 1003.17 1003.46 1003.98
1013.53 1013.17 1012.90 1012.56 1012.38 1011.99 1011.28 1010.31 1009.88 1008.78 1007.42 1005.06 1003.65 1002.87 1001.83 1001.48 1001.76 1002.00 1001.97 1002.07 1002.14 1001.86 1003.10 1004.62 1005.31 1004.50 1003.34 1002.82 1002.21 1004.26 1004.38 1003.83 1002.72 1002.64 1002.75 1002.05 1001.69 1002.18 1003.31 1003.38 1003.50 1001.32 1002.24 1002.58 1002.98
1013.30 1012.97 1012.67 1012.49 1012.16 1011.96 1011.49 1007.79 1004.46 1003.86 1004.20 1004.03 1002.56 1001.88 1001.32 1001.52 1001.58 1001.56 1001.79 1002.06 1001.92 1003.02 1004.25 1005.18 1004.52 1003.23 1002.83 1002.10 1001.11 1001.81 1002.34 1001.74 1000.70 1000.52 1001.34 1001.31 1002.97 1003.10 1002.73 1001.66 1000.28 1000.50 1001.29 1001.60 1001.88
1012.92 1012.79 1012.59 1012.35 1012.03 1011.44 1008.82 1005.92 1004.38 1003.44 1002.52 1001.98 1001.81 1001.30 1001.15 1001.31 1000.59 1000.77 1001.62 1001.45 1001.89 1003.14 1005.38 1005.00 1003.78 1002.19 1001.07 1000.42 1000.34 1000.69 1000.47 1000.01 999.58 999.39 1000.17 1000.92 1003.75 1003.36 1002.97 1001.75 1000.01 999.86 1000.41 1000.92 1001.36
1012.74 1012.45 1012.40 1012.30 1012.14 1008.13 1007.13 1005.29 1004.59 1003.85 1002.34 1000.99 1000.94 1000.36 1000.73 1000.80 1000.83 1000.75 1001.03 1001.48 1001.48 1003.01 1004.75 1004.40 1002.79 1001.20 1000.35 1000.19 999.91 999.81 999.55 999.13 998.77 999.12 1000.30 1000.81 1003.81 1004.48 1003.42 1002.90 1000.43 1000.07 999.99 1000.05 1000.55
1012.54 1012.23 1012.21 1012.51 1010.31 1006.41 1004.37 1004.34 1004.01 1003.76 1001.16 1000.42 999.99 999.73 1000.10 1000.67 1000.31 1000.27 1000.70 1000.83 1001.42 1002.26 1002.77 1002.42 1001.72 1000.55 999.79 999.57 999.55 998.85 998.77 998.68 998.08 997.74 998.59 998.93 1000.61 1002.04 1001.84 1000.96 1000.03 999.92 999.95 999.99 1000.03
1012.20 1012.05 1012.12 1011.41 1009.61 1005.98 1004.40 1004.12 1004.11 1002.75 999.83 999.30 999.45 999.83 999.95 1000.08 1000.06 1000.15 1000.71 1001.30 1001.50 1002.21 1003.28 1002.34 1001.32 1000.26 999.32 999.24 998.96 998.81 998.30 997.69 997.17 997.33 998.20 998.14 998.71 999.96 1000.02 1000.15 1000.27 1000.42 1000.73 1000.93 1000.87
1011.94 1011.86 1011.95 1009.48 1005.83 1004.53 1004.18 1003.88 1002.83 1000.45 998.69 998.71 999.02 999.38 999.26 999.02 999.49 1000.20 1000.60 1000.68 1002.11 1005.91 1004.83 1003.61 1001.18 999.36 999.50 998.79 998.80 998.39 997.32 997.08 996.59 997.06 998.23 997.43 997.18 998.20 999.02 999.77 1000.18 1000.42 1000.81 1001.21 1001.39
1011.68 1011.78 1009.70 1008.30 1006.33 1005.22 1004.28 1003.40 1001.10 998.11 997.74 997.77 998.16 998.69 998.46 998.61 999.12 999.72 1000.00 1000.36 1002.70 1003.08 1004.22 1003.32 1000.57 998.82 998.52 998.63 998.64 998.23 997.68 997.18 996.64 996.76 996.83 996.37 996.81 997.22 997.74 998.76 999.35 999.75 1000.09 1000.52 1001.00
1011.55 1010.39 1008.19 1005.75 1006.08 1005.66 1004.16 1001.82 999.09 997.59 997.27 996.92 997.15 997.53 998.06 998.77 999.90 1001.96 999.66 1000.12 1002.77 1003.24 1002.31 1001.50 1000.53 998.29 998.08 998.28 998.38 997.97 997.93 997.86 997.63 996.67 996.50 996.22 996.59 997.34 997.57 998.19 999.21 999.59 999.99 1000.34 1000.78
1009.84 1007.49 1005.40 1004.02 1004.34 1004.44 1003.31 1000.88 998.48 998.04 997.51 997.13 996.74 996.88 997.59 998.71 998.27 999.41 998.57 998.41 999.04 999.77 999.40 999.10 998.54 997.64 997.84 998.11 997.77 998.14 998.32 997.94 997.54 997.22 997.17 996.77 996.94 997.21 997.93 998.49 999.12 999.57 999.98 1000.68 1001.35
1009.47 1005.40 1003.14 1003.57 1003.82 1003.34 1001.60 999.26 998.43 998.42 998.15 997.33 997.00 996.99 997.33 997.61 997.38 997.90 997.90 998.13 998.52 998.84 999.26 999.25 998.77 997.94 997.25 997.06 996.73 997.44 997.64 997.79 997.54 997.86 997.73 997.32 996.70 997.12 997.83 998.51 998.90 999.32 1000.04 1001.01 1001.79
1007.41 1003.87 1002.73 1003.26 1003.15 1001.99 1000.63 998.68 998.97 998.21 998.50 997.92 997.73 997.24 997.38 997.35 997.51 997.70 997.57 997.58 998.73 999.24 999.46 999.32 999.02 998.20 997.55 996.98 996.91 997.36 997.95 998.26 998.03 998.14 997.88 997.60 997.16 996.81 997.61 998.14 998.71 999.35 1000.45 1001.57 1002.25
1006.68 1003.01 1002.61 1002.63 1001.91 1000.71 999.72 999.04 998.95 998.15 998.23 998.06 997.97 998.09 998.10 998.26 998.44 998.30 997.85 998.32 999.04 999.57 1000.12 1000.01 999.37 998.51 997.75 996.70 996.69 997.23 997.90 998.17 998.17 998.05 998.08 997.93 997.35 996.76 997.08 997.68 998.50 999.62 1000.62 1001.74 1003.09
1006.72 1002.46 1002.34 1002.26 1001.47 1000.67 999.30 998.81 998.71 998.68 998.39 998.21 998.14 998.34 998.71 998.70 998.72 998.69 998.35 998.25 998.81 999.71 1000.72 1000.92 1000.35 1000.08 999.43 998.42 998.11 997.77 997.66 997.74 997.97 998.00 997.76 997.42 997.04 997.15 997.56 998.06 998.85 999.76 1000.75 1001.98 1003.21
1005.92 1001.94 1000.83 1001.23 1001.07 1000.49 999.17 998.29 998.35 998.21 998.77 998.72 998.79 998.74 998.76 998.54 998.47 998.24 998.26 998.44 998.68 999.48 1000.31 1000.63 1000.42 1000.26 999.80 999.27 998.72 998.30 997.99 997.83 997.76 997.78 997.78 997.64 997.66 997.86 998.35 999.12 999.91 1000.62 1001.37 1002.12 1002.87
1006.01 1003.75 1002.14 1000.77 1000.23 1000.16 999.44 999.02 998.30 998.02 997.95 998.20 998.75 998.82 998.63 998.48 998.65 998.47 998.28 998.36 998.79 999.83 999.68 999.90 999.96 1000.06 999.83 999.45 998.84 998.15 997.75 997.43 997.36 997.26 997.23 997.49 997.69 998.18 999.16 1000.09 1000.92 1001.52 1001.85 1002.17 1002.67
1006.96 1005.44 1003.83 1001.57 1000.56 999.77 999.34 999.11 999.05 998.62 998.47 998.34 998.60 998.74 998.69 999.05 998.92 998.77 998.78 998.85 999.18 999.35 999.39 999.60 999.73 1000.05 999.78 999.92 999.38 998.59 997.75 997.02 996.70 996.99 997.61 998.12 998.72 999.22 1000.04 1000.83 1001.34 1001.77 1002.08 1002.19 1002.87
Thickness
5758 5760 5761 5763 5767 5771 5775 5778 5781 5786 5792 5797 5800 5805 5810 5815 5826 5834 5836 5857 5864 5868 5867 5871 5871 5872 5870 5865 5845 5828 5803 5790 5818 5814 5838 5862 5851 5863 5865 5845 5849 5849 5841 5834 5834
5759 5761 5762 5766 5769 5774 5778 5783 5786 5790 5795 5799 5803 5808 5812 5816 5830 5840 5863 5868 5871 5871 5867 5866 5862 5865 5860 5856 5826 5804 5801 5833 5860 5846 5843 5863 5859 5854 5846 5842 5839 5842 5847 5843 5836
5760 5762 5764 5768 5772 5777 5782 5787 5791 5795 5800 5803 5807 5811 5816 5819 5830 5853 5868 5871 5873 5873 5872 5872 5868 5858 5845 5832 5815 5810 5813 5869 5871 5874 5876 5866 5863 5860 5841 5817 5846 5835 5836 5836 5833
5762 5764 5766 5770 5775 5779 5784 5790 5794 5798 5803 5807 5811 5815 5819 5830 5819 5866 5871 5875 5874 5875 5868 5882 5863 5798 5815 5844 5842 5832 5858 5871 5872 5880 5874 5861 5872 5854 5854 5854 5865 5855 5846 5840 5833
5762 5767 5768 5771 5776 5782 5787 5792 5797 5802 5807 5810 5814 5818 5830 5832 5851 5875 5874 5875 5878 5875 5866 5873 5843 5802 5806 5844 5859 5846 5869 5876 5880 5881 5878 5875 5865 5863 5857 5870 5868 5857 5847 5840 5838
5764 5767 5772 5774 5780 5785 5790 5795 5800 5805 5809 5813 5816 5820 5830 5824 5887 5881 5882 5880 5881 5881 5880 5879 5870 5871 5849 5855 5851 5867 5881 5873 5875 5876 5877 5867 5863 5859 5862 5872 5860 5853 5845 5844 5844
5766 5770 5774 5778 5782 5787 5793 5799 5805 5810 5814 5817 5821 5827 5835 5847 5892 5887 5888 5883 5891 5891 5879 5896 5891 5874 5877 5867 5888 5859 5829 5861 5871 5873 5868 5867 5838 5827 5849 5867 5853 5851 5849 5848 5848
5769 5772 5776 5781 5787 5791 5797 5802 5809 5814 5817 5820 5821 5831 5835 5887 5894 5888 5891 5887 5896 5899 5894 5902 5901 5887 5881 5885 5845 5804 5805 5791 5843 5849 5844 5865 5787 5823 5848 5857 5854 5853 5850 5849 5849
5770 5776 5780 5784 5789 5795 5802 5807 5814 5819 5822 5824 5830 5837 5841 5887 5873 5891 5895 5883 5892 5896 5900 5901 5891 5875 5863 5811 5795 5795 5770 5773 5805 5838 5832 5847 5810 5834 5816 5832 5858 5859 5855 5851 5851
5772 5778 5783 5787 5792 5798 5805 5809 5817 5823 5829 5837 5844 5831 5864 5862 5885 5892 5901 5896 5881 5886 5880 5876 5836 5834 5835 5790 5783 5786 5787 5798 5800 5828 5842 5842 5851 5835 5837 5818 5839 5865 5860 5858 5854
5774 5780 5785 5791 5795 5801 5811 5820 5820 5820 5835 5845 5858 5857 5872 5891 5898 5884 5896 5885 5881 5876 5834 5816 5812 5803 5836 5849 5862 5833 5826 5819 5844 5850 5844 5853 5867 5871 5852 5835 5814 5871 5865 5864 5862
5776 5782 5788 5792 5797 5802 5809 5829 5856 5863 5832 5857 5870 5874 5888 5891 5862 5878 5897 5863 5863 5828 5840 5823 5812 5846 5850 5857 5863 5852 5834 5832 5862 5876 5860 5863 5837 5854 5857 5868 5874 5878 5870 5870 5873
5779 5783 5789 5794 5799 5808 5828 5845 5872 5876 5841 5857 5871 5870 5876 5883 5870 5872 5883 5876 5858 5834 5811 5804 5832 5865 5869 5868 5859 5853 5848 5853 5858 5879 5874 5862 5808 5830 5848 5869 5893 5892 5879 5878 5873
5780 5786 5790 5794 5800 5834 5830 5860 5871 5874 5819 5841 5855 5873 5881 5882 5858 5894 5896 5876 5865 5824 5818 5824 5855 5865 5866 5858 5865 5841 5871 5870 5868 5853 5811 5856 5770 5797 5816 5829 5873 5877 5884 5883 5873
5782 5789 5793 5794 5814 5835 5859 5872 5876 5861 5787 5854 5862 5905 5889 5865 5874 5878 5904 5886 5857 5853 5854 5845 5854 5859 5857 5862 5872 5861 5883 5872 5873 5870 5862 5862 5830 5826 5840 5848 5866 5872 5876 5881 5886
5786 5791 5794 5804 5817 5848 5868 5873 5862 5812 5798 5849 5871 5861 5862 5872 5874 5885 5880 5891 5884 5861 5848 5856 5879 5876 5876 5880 5881 5884 5872 5878 5881 5870 5822 5860 5852 5831 5843 5851 5858 5865 5866 5867 5872
5789 5793 5797 5817 5838 5864 5870 5854 5809 5804 5872 5851 5854 5866 5866 5867 5869 5870 5862 5859 5833 5768 5790 5819 5850 5888 5886 5867 5877 5876 5871 5834 5836 5833 5812 5876 5866 5854 5865 5865 5862 5860 5861 5863 5866
5792 5795 5817 5830 5847 5860 5858 5830 5798 5864 5862 5885 5875 5872 5861 5880 5877 5872 5867 5858 5848 5840 5802 5795 5820 5874 5891 5872 5857 5864 5867 5844 5813 5826 5843 5888 5847 5859 5885 5880 5876 5874 5869 5865 5866
5794 5808 5825 5849 5850 5855 5837 5812 5842 5870 5883 5883 5886 5865 5865 5872 5858 5823 5867 5861 5824 5830 5820 5802 5812 5893 5892 5889 5881 5864 5848 5878 5850 5875 5858 5875 5878 5882 5889 5879 5867 5866 5865 5862 5860
5813 5827 5839 5867 5867 5852 5828 5819 5860 5881 5885 5888 5866 5883 5858 5860 5872 5861 5874 5894 5883 5877 5890 5869 5841 5889 5885 5891 5891 5871 5881 5843 5856 5821 5813 5849 5852 5846 5856 5856 5861 5860 5858 5855 5855
5812 5824 5860 5870 5866 5840 5822 5852 5869 5884 5885 5876 5876 5873 5874 5872 5884 5872 5876 5886 5890 5882 5885 5874 5859 5862 5887 5875 5873 5867 5859 5864 5870 5855 5821 5818 5847 5878 5863 5863 5857 5858 5855 5850 5846
5825 5815 5864 5869 5824 5840 5835 5870 5857 5877 5884 5880 5880 5881 5874 5880 5870 5869 5870 5882 5890 5882 5857 5873 5857 5839 5857 5892 5900 5883 5861 5858 5831 5826 5846 5839 5838 5895 5877 5867 5859 5853 5845 5839 5840
5817 5839 5865 5860 5814 5834 5859 5864 5871 5874 5873 5873 5869 5876 5879 5862 5846 5863 5875 5886 5885 5873 5856 5865 5847 5829 5842 5879 5896 5868 5864 5864 5861 5858 5829 5813 5829 5898 5887 5875 5864 5846 5842 5832 5825
5819 5823 5840 5847 5850 5839 5849 5856 5855 5879 5873 5878 5873 5876 5863 5856 5867 5852 5861 5881 5885 5874 5856 5857 5843 5826 5810 5835 5858 5846 5858 5865 5855 5828 5830 5838 5846 5863 5863 5857 5850 5843 5837 5823 5812
5826 5837 5852 5822 5834 5845 5861 5868 5855 5854 5871 5874 5860 5862 5857 5846 5853 5854 5866 5869 5878 5859 5862 5853 5822 5834 5842 5850 5854 5849 5849 5852 5843 5845 5824 5836 5835 5847 5848 5838 5835 5831 5824 5811 5802
5813 5822 5843 5846 5855 5846 5845 5848 5853 5865 5871 5859 5851 5861 5864 5851 5853 5845 5860 5861 5853 5855 5856 5861 5827 5835 5828 5845 5847 5840 5852 5854 5851 5851 5848 5844 5836 5857 5843 5834 5819 5813 5808 5801 5793
5825 5833 5832 5838 5844 5844 5846 5849 5850 5864 5869 5873 5864 5857 5854 5855 5871 5875 5877 5874 5865 5853 5847 5844 5834 5820 5804 5830 5828 5813 5838 5848 5854 5855 5842 5817 5828 5838 5824 5816 5811 5807 5803 5797 5785